Погода в Лонгъюгане

Россия / Ямало-Ненецкий автономный округ     64°46′52″N   70°57′03″E
темп.,
°C
ветер,
м/с
пор.,
м/с
влажн.,
%
обл.,
%
осадки,
мм/ч
давл.,
гПа
погр.,
м
27 октября, ср
ср2723:00−7зсз813875 0.0 1001376
02:00−7з8148888 0.0 1002464
05:00−6з81193100 0.1 1003487
08:00−7зсз799293 0.1 1004579
11:00−6зсз71184100 0.2 1006863
14:00−7сз7979100 0.0 1009700
17:00−8зсз59845 0.0 1012360
20:00−9зсз36865 0.0 1013133
28 октября, чт
чт2823:00−10юз118941 0.0 101313
02:00−9ююв4685100 0.0 1012144
05:00−8юв61083100 0.0 1010286
08:00−7юв81483100 0.0 1007360
11:00−5юв91585100 0.0 1004543
14:00−4юв101592100 0.3 1000590
17:00−3юв91496100 0.9 997467
20:00−2юв71397100 1.2 994391
29 октября, пт
пт2923:00−2ююв5997100 2.0 991280
02:00−2ю4798100 0.5 990180
05:00−2ю3598100 1.1 990159
08:00−2ююз2398100 0.8 990100
11:00−1юз4598100 1.9 990264
14:00−4ююз7995100 1.4 992301
17:00−6с101695100 2.9 994578
20:00−9ссз131994100 2.0 997688
30 октября, сб
сб3023:00−10ссз131893100 4.1 1000734
02:00−10ссз121893100 1.2 1003780
05:00−10сз121890100 1.6 1005795
08:00−12сз11178880 0.1 1006464
11:00−12сз916875 0.1 1008461
14:00−11сз814855 0.0 1010401
17:00−14зсз612905 0.0 1012141
20:00−15зсз59885 0.0 101396
31 октября, вс
вс3123:00−15з57865 0.0 101470
02:00−15зсз611895 0.0 1014129
05:00−16зсз57915 0.0 101680
08:00−16зсз59905 0.0 101794
11:00−13зсз611875 0.0 1018213
14:00−12зсз59865 0.0 1019151
17:00−16зсз33895 0.0 102021
20:00−19зюз22955 0.0 10199